664  
ASUS46 KOTX 181125  
RWROTX  
 
EASTERN WASHINGTON/NORTHERN IDAHO ROUNDUP  
NATIONAL WEATHER SERVICE, SPOKANE WA  
400 AM PDT FRI SEP 18 2020  
 
NOTE: "FAIR" INDICATED FEW OR NO CLOUDS BELOW 12,000 FEET WITH NO  
SIGNIFICANT WEATHER AND/OR S TO VISIBILITY
.  
   
..NORTHEAST WASHINGTON AND NORTHERN IDAHO PANHANDLE
 
 
 
CITY SKY/WX TMP DP RH WIND PRES REMARKS
 
SPOKANE INTL CLOUDY 55 45 68 CALM 29.86S SMOKE  
SPOKANE DOWNTO CLOUDY 51 48 89 NE3 29.85F FOG  
COEUR D ALENE CLEAR 55 50 83 SE8 29.87S HAZE  
DEER PARK CLEAR 45 41 86 NE3 29.86S FOG  
SANDPOINT CLEAR 46 45 93 CALM 29.88S FOG  
BONNERS FERRY FAIR 50 45 81 CALM 29.93F HAZE  
   
..SOUTHEAST WASHINGTON AND SOUTHERN IDAHO PANHANDLE
 
 
 
CITY SKY/WX TMP DP RH WIND PRES REMARKS
 
WALLA WALLA CLOUDY 57 44 62 SE6 29.85R HAZE  
PULLMAN/MOSCOW CLOUDY 47 39 74 CALM 29.88R HAZE  
LEWISTON CLOUDY 55 41 59 SE3 29.84S HAZE  
LOWELL N/A 50 49 96 CALM 29.90F  
GRANGEVILLE FAIR 52 41 66 CALM 29.89S  
   
..COLUMBIA BASIN
 
 
 
CITY SKY/WX TMP DP RH WIND PRES REMARKS
 
EPHRATA CLOUDY 54 47 77 E5 29.82S HAZE  
MOSES LAKE CLOUDY 52 46 80 N6 29.82F SMOKE  
PASCO PTCLDY 49 48 97 NE3 29.83S SMOKE  
RICHLAND N/A 55 53 95 E3 29.83S FOG  
HERMISTON CLOUDY 51 45 79 SE5 29.84S HAZE  
PENDLETON CLOUDY 53 43 68 SE7 29.86S HAZE  
   
..EAST SLOPES CASCADES
 
 
 
CITY SKY/WX TMP DP RH WIND PRES REMARKS
 
THE DALLES CLOUDY 61 52 72 S3 29.84R HAZE  
YAKIMA CLOUDY 51 46 83 W7 29.83F HAZE  
ELLENSBURG CLOUDY 64 54 69 NW13 29.86F HAZE  
STAMPEDE PASS FOG 54 53 97 VRB5 29.99F VSB 1/4  
WENATCHEE CLOUDY 58 48 69 W9 29.83F HAZE  
WINTHROP FAIR 44 42 92 NW3 29.90 FOG  
OMAK CLOUDY 60 46 59 N12 29.85S HAZE  
SUNNYSIDE N/A 51 49 94 CALM 29.83S FOG  
   
..SOUTHERN BRITISH COLUMBIA
 
 
 
CITY SKY/WX TMP DP RH WIND PRES REMARKS
 
PENTICTON CLEAR 55 48 76 N9 29.87F  
CRANBROOK CLEAR 48 41 76 NW7 30.01F SMOKE  
OSOYOOS N/A 54 52 94 CALM N/A  
CRESTON N/A 57 52 82 CALM N/A  
   
..WESTERN MONTANA
 
 
 
CITY SKY/WX TMP DP RH WIND PRES REMARKS
 
KALISPELL CLOUDY 43 40 89 W7 29.97F FOG  
LIBBY N/A 43 39 87 SE3 29.96S  
MISSOULA CLOUDY 47 41 80 CALM 30.01S HAZE  
   
..NEIGHBORING CITIES
 
 
 
CITY SKY/WX TMP DP RH WIND PRES REMARKS
 
SEATTLE MOCLDY 62 59 90 NE6 29.89F FOG  
PORTLAND TSTM 65 62 90 S9 29.93R FOG  
BOISE PTCLDY 65 33 30 CALM 29.91R  
GREAT FALLS PTCLDY 46 40 79 SW5 30.07F  
CALGARY CLEAR 48 45 87 SW3 30.02F  
 
CLICK HERE TO GO TO PREVIOUS BULLETINS.

The Nexlab WA Page
The Nexlab ID Page Main Text Page